This demonstration page uses our WeatherBlox Daily Observations layout. Learn more.

Left ArrowRight Arrow

39.92423, -83.80882

Hourly Observations for November 20, 2018

Temp ( °F °C ) Dew Point ( °F °C ) Humidity (%) Winds ( mph kmh ) Pressure ( in mb ) Visibility ( mi km ) Precip ( " mm )
12:07 am 00:07 Cloudy 36 2 34 1 93 93 NW 8 13 30.09 1019 10 16 N/A
12:56 am 00:56 Cloudy 35 1.7 32 undefined 89 89 WNW 12 19 30.07 1018 10 16 0.03 0.76
1:33 am 01:33 Cloudy 36 2 34 1 93 93 WNW 8 13 30.09 1019 10 16 0.01 0.25
1:56 am 01:56 Cloudy 35 1.7 33 0.6 93 93 WNW 8 13 30.07 1018 9 14 0.02 0.51
2:23 am 02:23 Cloudy 36 2 32 undefined 87 87 WNW 10 17 30.09 1019 10 16 0.01 0.25
2:41 am 02:41 Cloudy 36 2 34 1 93 93 WNW 7 11 30.09 1019 9 14 0.02 0.51
2:49 am 02:49 Cloudy 36 2 34 1 93 93 WNW 8 13 30.09 1019 8 13 0.02 0.51
2:56 am 02:56 Cloudy 35 1.7 33 0.6 93 93 WNW 8 13 30.08 1019 9 14 0.02 0.51
3:30 am 03:30 Cloudy 34 1 30 -1 87 87 WNW 10 17 30.09 1019 10 16 0.01 0.25
3:56 am 03:56 Cloudy with Light Snow 34 1.1 30 -1.1 85 85 WNW 13 20 30.08 1019 9 14 0.02 0.51
4:10 am 04:10 Cloudy with Light Snow 34 1 30 -1 87 87 WNW 10 17 30.12 1020 9 14 N/A
4:56 am 04:56 Cloudy with Light Snow 32 undefined 31 -0.6 96 96 W 7 11 30.09 1019 9 14 0.01 0.25
5:06 am 05:06 Cloudy with Light Snow 32 undefined 30 -1 93 93 W 7 11 30.12 1020 9 14 N/A
5:43 am 05:43 Cloudy with Light Snow 32 undefined 30 -1 93 93 WSW 6 9 30.12 1020 8 13 N/A
5:56 am 05:56 Cloudy with Light Snow 33 0.6 32 undefined 96 96 WSW 7 11 30.10 1019 7 11 N/A
6:56 am 06:56 Cloudy with Light Wintry Mix 33 0.6 32 undefined 96 96 W 7 11 30.11 1020 3 5 N/A
7:31 am 07:31 Cloudy with Light Wintry Mix 34 1 32 undefined 93 93 W 6 9 30.15 1021 3 4 N/A
7:42 am 07:42 Cloudy with Light Wintry Mix 34 1 34 1 100 100 W 6 9 30.15 1021 1 2 N/A
7:56 am 07:56 Cloudy with Light Wintry Mix 33 0.6 33 0.6 100 100 W 9 15 30.14 1021 1 2 N/A
8:07 am 08:07 Cloudy with Light Wintry Mix 34 1 34 1 100 100 W 9 15 30.18 1022 1 2 N/A
8:35 am 08:35 Cloudy with Light Wintry Mix 34 1 34 1 100 100 NW 8 13 30.18 1022 1 2 N/A
8:49 am 08:49 Cloudy with Mist and Fog 34 1 34 1 100 100 NW 8 13 30.18 1022 3 4 N/A
8:56 am 08:56 Cloudy with Mist and Fog 33 0.6 33 0.6 100 100 WNW 8 13 30.16 1021 3 4 N/A
9:00 am 09:00 Cloudy with Mist and Fog 34 1 34 1 100 100 WNW 7 11 30.18 1022 3 5 N/A
9:21 am 09:21 Cloudy with Mist and Fog 34 1 34 1 100 100 WNW 9 15 30.18 1022 5 8 N/A
9:40 am 09:40 Cloudy with Mist and Fog 34 1 34 1 100 100 WNW 12 19 30.21 1023 5 8 N/A
9:50 am 09:50 Cloudy with Mist and Fog 34 1 34 1 100 100 WNW 12 19 30.21 1023 5 8 N/A
9:56 am 09:56 Cloudy with Mist and Fog 34 1.1 33 0.6 97 97 NW 9 15 30.18 1022 4 6 N/A
10:35 am 10:35 Cloudy 36 2 32 undefined 87 87 NW 12 19 30.21 1023 7 11 N/A
10:56 am 10:56 Cloudy 35 1.7 32 undefined 89 89 NW 9 15 30.20 1023 7 11 N/A
11:07 am 11:07 Cloudy 36 2 32 undefined 87 87 NW 10 17 30.24 1024 8 13 N/A
11:56 am 11:56 Cloudy 36 2.2 32 undefined 86 86 WNW 8 13 30.21 1023 8 13 N/A
12:56 pm 12:56 Cloudy 35 1.7 32 undefined 89 89 WNW 9 15 30.20 1023 10 16 N/A
1:28 pm 13:28 Cloudy 36 2 32 undefined 87 87 WNW 9 15 30.24 1024 10 16 N/A
1:56 pm 13:56 Cloudy 36 2.2 32 undefined 86 86 WNW 7 11 30.20 1023 10 16 N/A
2:56 pm 14:56 Cloudy 36 2.2 32 undefined 86 86 W 7 11 30.20 1023 10 16 N/A
3:56 pm 15:56 Cloudy 35 1.7 32 undefined 89 89 W 8 13 30.21 1023 10 16 N/A
4:56 pm 16:56 Cloudy 35 1.7 32 undefined 89 89 W 6 9 30.22 1023 10 16 N/A
5:15 pm 17:15 Cloudy 36 2 30 -1 81 81 WSW 12 19 30.24 1024 10 16 N/A
5:56 pm 17:56 Cloudy 35 1.7 30 -1.1 82 82 WNW 12 19 30.23 1024 10 16 N/A
6:56 pm 18:56 Cloudy 33 0.6 28 -2.2 82 82 W 12 19 30.24 1024 10 16 N/A
7:56 pm 19:56 Cloudy 33 0.6 27 -2.8 78 78 W 10 17 30.24 1024 10 16 N/A
8:07 pm 20:07 Cloudy 34 1 27 -3 75 75 W 9 15 30.27 1025 10 16 N/A
8:56 pm 20:56 Cloudy 33 0.6 27 -2.8 78 78 W 9 15 30.23 1024 10 16 N/A
9:56 pm 21:56 Cloudy 32 undefined 28 -2.2 85 85 WSW 9 15 30.23 1024 10 16 N/A
10:56 pm 22:56 Cloudy 32 undefined 28 -2.2 85 85 WSW 10 17 30.22 1024 10 16 N/A
11:56 pm 23:56 Mostly Cloudy 32 undefined 27 -2.8 82 82 WSW 9 15 30.22 1023 10 16 N/A

Powered by AerisWeather